Location: Egypt
(35.2429°N, 89.9254°W)
Time: 05:04:54
(UTC+00:00)

ARIANE 6 FM1 Upper Stage - Visible Passes

Search period start: 14 October 2024 00:00
Search period end: 24 October 2024 00:00
Orbit: 563 x 595 km, 62.0° (Epoch: 13 October)

Date Brightness Start Highest point End Pass type
(mag) Time Alt. Az. Time Alt. Az. Time Alt. Az.
18 Oct 5.1 01:10:18 10° N 01:11:03 13° N 01:11:03 13° N visible
19 Oct 4.8 01:14:01 10° N 01:15:29 18° N 01:15:29 18° N visible
20 Oct 4.4 01:17:56 10° NNW 01:20:01 25° N 01:20:01 25° N visible
21 Oct 3.9 01:22:01 10° NNW 01:24:40 36° NNW 01:24:40 36° NNW visible
21 Oct 4.6 23:48:27 10° N 23:50:52 14° NE 23:53:10 10° ENE visible
22 Oct 3.7 01:26:14 10° NW 01:29:30 47° WNW 01:29:30 47° WNW visible
22 Oct 4.1 23:51:54 10° N 23:55:17 21° NE 23:58:12 12° E visible
23 Oct 4.1 01:30:40 10° NW 01:34:33 37° WSW 01:34:33 37° WSW visible
